Orbital Elements at Epoch 2459000.5 (2020-May-31.0) TDB
Reference: JPL 23 (heliocentric ecliptic J2000)
Element | Value | Uncertainty (1-sigma) | Units |
e | .2382184941565834 | 2.6866e-08 | |
a | 2.582432034024465 | 1.0339e-08 | au |
q | 1.967248963617435 | 6.701e-08 | au |
i | 4.732862823104106 | 5.877e-06 | deg |
node | 139.6797703748327 | 3.6812e-05 | deg |
peri | 259.5516908243785 | 3.9362e-05 | deg |
M | 79.8472777311907 | 1.3772e-05 | deg |
tp | 2458664.298698210443 (2019-Jun-29.79869821) | 5.7076e-05 | TDB |
period | 1515.799562405892 4.15 | 9.1028e-06 2.492e-08 | d yr |
n | .2374984192689728 | 1.4262e-09 | deg/d |
Q | 3.197615104431496 | 1.2802e-08 | au |
|
| | Orbit Determination Parameters
Additional Information
|